Zurück zum Katalog

RASSVET-3 32

AktivPO
NORAD 100098·PAYLOAD·🇷🇺 Russia

Gestartet Jul 19, 2026 von Plesetsk Cosmodrome

Loading…

Nächste Überflüge (nächste 24 Stunden)

TLE

AktuellSource: Space-Track

Epoche: Sep 14, 2026, 13:32 UTC

1 A0098U 26165R   26257.56390958 -.00182680  00000-0 -34303-2 0  9996
2 A0098  82.2998 167.8128 0001166  23.0789 337.0513 15.49277866  8941

Verfolge RASSVET-3 32 in Echtzeit mit AllMySat

Download on the App Store